Moses Lake, WA

7:54 AM PDT on June 27, 2017 (GMT -0700)
Grant County International

Weather History for KMWH - January, 2014

Change the Weather History Date:

Friday, January 17, 2014

  Actual Average Record
Temperature  
Mean Temperature 29 °F 30 °F  
Max Temperature 38 °F 36 °F 55 °F (2011)
Min Temperature 20 °F 24 °F 9 °F (2017)
Degree Days  
Heating Degree Days 36 35  
Month to date heating degree days 509 614  
Since 1 July heating degree days 3193 3201  
Cooling Degree Days 0 0  
Month to date cooling degree days 0 0  
Year to date cooling degree days 0 0  
Moisture  
Dew Point 24 °F    
Average Humidity 88    
Maximum Humidity 100    
Minimum Humidity 76    
Precipitation  
Precipitation 0.00 in 0.03 in 0.58 in (2015)
Month to date precipitation 0.04 0.78  
Year to date precipitation 0.04 0.78  
Sea Level Pressure  
Sea Level Pressure 30.42 in    
Wind  
Wind Speed 6 mph (North)    
Max Wind Speed 10 mph    
Max Gust Speed 13 mph    
Visibility 6 miles    
Events Fog    
T = Trace of Precipitation, MM = Missing Value Source: NWS Daily Summary

Daily Weather History Graph

Daily Weather History Graph

Search for Another Location

Airport or City:

Trip Planner

Search our weather history database for the weather conditions in past years. The results will help you decide how hot, cold, wet, or windy it might be!

Date:

Astronomy

Jan. 17, 2014 Rise Set
Actual Time 7:37 AM PST 4:37 PM PST
Civil Twilight 7:03 AM PST 5:11 PM PST
Nautical Twilight 6:25 AM PST 5:49 PM PST
Astronomical Twilight 5:49 AM PST 6:25 PM PST
Moon 6:39 PM PST (1/17) 7:59 AM PST (1/17)
Length of Visible Light 10h 07m
Length of Day
8h 59m
Full, 98% of the Moon is Illuminated
Jan 17
Full
Jan 23
Last Quarter
Jan 30
New
Feb 6
First Quarter
Feb 14
Full

Hourly Weather History & Observations

Time (PST) Temp. Windchill Dew Point Humidity Pressure Visibility Wind Dir Wind Speed Gust Speed Precip Events Conditions
12:52 AM 21.9 °F 13.4 °F 19.9 °F 92% 30.45 in 10.0 mi North 6.9 mph - N/A   Clear
1:52 AM 21.9 °F 13.4 °F 21.0 °F 96% 30.45 in 10.0 mi North 6.9 mph - N/A   Clear
2:52 AM 21.9 °F 12.5 °F 19.9 °F 92% 30.45 in 10.0 mi North 8.1 mph - N/A   Clear
3:52 AM 19.9 °F 12.1 °F 18.0 °F 92% 30.44 in 10.0 mi North 5.8 mph - N/A   Clear
4:52 AM 19.9 °F 10.1 °F 18.0 °F 92% 30.45 in 10.0 mi North 8.1 mph - N/A   Clear
5:52 AM 19.9 °F 10.1 °F 18.0 °F 92% 30.46 in 10.0 mi North 8.1 mph - N/A   Clear
6:37 AM 21.2 °F 11.7 °F 19.4 °F 93% 30.40 in 10.0 mi NNW 8.1 mph - N/A   Partly Cloudy
6:52 AM 23.0 °F 13.9 °F 21.0 °F 92% 30.45 in 10.0 mi NNW 8.1 mph - N/A   Mostly Cloudy
7:25 AM 24.8 °F 15.3 °F 24.8 °F 100% 30.40 in 2.0 mi North 9.2 mph - N/A   Overcast
7:41 AM 26.6 °F 18.2 °F 24.8 °F 93% 30.40 in 1.5 mi North 8.1 mph - N/A   Overcast
7:52 AM 26.1 °F 17.6 °F 25.0 °F 96% 30.45 in 1.0 mi North 8.1 mph - N/A Fog Light Freezing Fog
8:00 AM 26.6 °F 17.5 °F 24.8 °F 93% 30.40 in 0.2 mi North 9.2 mph - N/A Fog Light Freezing Fog
8:10 AM 26.6 °F 17.5 °F 24.8 °F 93% 30.41 in 0.8 mi North 9.2 mph - N/A   Overcast
8:19 AM 26.6 °F 18.2 °F 24.8 °F 93% 30.41 in 2.0 mi North 8.1 mph - N/A   Overcast
8:30 AM 26.6 °F 18.2 °F 24.8 °F 93% 30.42 in 0.5 mi North 8.1 mph - N/A Fog Light Freezing Fog
8:52 AM 27.0 °F 19.5 °F 26.1 °F 96% 30.47 in 0.2 mi North 6.9 mph - N/A Fog Light Freezing Fog
9:52 AM 28.0 °F 21.7 °F 27.0 °F 96% 30.48 in 0.2 mi North 5.8 mph - N/A Fog Light Freezing Fog
9:56 AM 28.4 °F 21.2 °F 28.4 °F 100% 30.43 in 1.0 mi North 6.9 mph - N/A   Overcast
10:40 AM 30.2 °F 23.4 °F 28.4 °F 93% 30.43 in 3.0 mi NNE 6.9 mph - N/A   Overcast
10:52 AM 30.0 °F 24.1 °F 28.9 °F 96% 30.48 in 1.0 mi North 5.8 mph - N/A   Overcast
11:35 AM 30.2 °F 25.4 °F 30.2 °F 100% 30.42 in 2.0 mi North 4.6 mph - N/A   Overcast
11:52 AM 30.9 °F 22.8 °F 30.0 °F 96% 30.47 in 3.0 mi NNE 9.2 mph - N/A   Overcast
12:52 PM 33.1 °F 26.1 °F 30.9 °F 92% 30.45 in 10.0 mi NNE 8.1 mph - N/A   Overcast
1:10 PM 35.6 °F 30.7 °F 30.2 °F 81% 30.39 in 10.0 mi North 5.8 mph - N/A   Overcast
1:52 PM 36.0 °F 31.1 °F 30.9 °F 82% 30.43 in 10.0 mi NE 5.8 mph - N/A   Mostly Cloudy
2:15 PM 37.4 °F 32.1 °F 30.2 °F 75% 30.38 in 10.0 mi NNE 6.9 mph - N/A   Scattered Clouds
2:52 PM 36.0 °F 30.3 °F 30.9 °F 82% 30.42 in 10.0 mi NE 6.9 mph - N/A   Partly Cloudy
3:52 PM 37.9 °F 33.5 °F 30.9 °F 76% 30.43 in 10.0 mi NNE 5.8 mph - N/A   Clear
4:52 PM 34.0 °F 28.8 °F 30.0 °F 85% 30.43 in 10.0 mi NNW 5.8 mph - N/A   Clear
5:52 PM 30.9 °F 24.3 °F 28.0 °F 89% 30.43 in 10.0 mi NW 6.9 mph - N/A   Clear
6:52 PM 27.0 °F 18.7 °F 25.0 °F 92% 30.43 in 10.0 mi North 8.1 mph - N/A   Clear
7:52 PM 25.0 °F 19.3 °F 23.0 °F 92% 30.42 in 10.0 mi NNW 4.6 mph - N/A   Clear
8:52 PM 24.1 °F - 21.9 °F 91% 30.43 in 10.0 mi Calm Calm - N/A   Clear
9:52 PM 24.1 °F - 23.0 °F 96% 30.43 in 9.0 mi Calm Calm - N/A   Clear
10:10 PM 23.0 °F 18.4 °F 21.2 °F 93% 30.38 in 1.0 mi North 3.5 mph - N/A   Mist
10:17 PM 21.2 °F 13.6 °F 21.2 °F 100% 30.38 in 0.5 mi North 5.8 mph - N/A Fog Light Freezing Fog
10:25 PM 21.2 °F 12.6 °F 19.4 °F 93% 30.39 in 1.2 mi North 6.9 mph - N/A   Partly Cloudy
10:28 PM 21.2 °F 12.6 °F 19.4 °F 93% 30.39 in 3.0 mi North 6.9 mph - N/A   Scattered Clouds
10:33 PM 21.2 °F 12.6 °F 21.2 °F 100% 30.39 in 1.8 mi North 6.9 mph - N/A   Mostly Cloudy
10:52 PM 21.9 °F 17.2 °F 21.0 °F 96% 30.44 in 0.8 mi North 3.5 mph - N/A   Mist
10:59 PM 21.2 °F 16.4 °F 19.4 °F 93% 30.39 in 1.2 mi North 3.5 mph - N/A   Scattered Clouds
11:04 PM 21.2 °F 14.9 °F 19.4 °F 93% 30.39 in 3.0 mi North 4.6 mph - N/A   Scattered Clouds
11:52 PM 19.9 °F 12.1 °F 18.0 °F 92% 30.43 in 10.0 mi North 5.8 mph - N/A   Clear